Regional Weather Roundup
Issued by NWS Jackson, KY

Home | Current Version | Previous Version | Graphics & Text | Print | Product List | Glossary On
Versions: 1 2 3 4 5 6 7 8 9 10 11 12 13 14 15 16 17 18 19 20 21 22 23 24 25 26 27 28 29 30 31 32 33 34 35 36 37 38 39 40 41 42 43 44 45 46 47 48 49 50
000
ASUS43 KJKL 270405
RWRJKL

EAST KENTUCKY HOURLY WEATHER ROUNDUP
NATIONAL WEATHER SERVICE JACKSON KY
1100 PM EST MON JAN 26 2015

NOTE: "FAIR" INDICATES FEW OR NO CLOUDS BELOW 12,000 FEET WITH
NO SIGNIFICANT WEATHER AND/OR OBSTRUCTIONS TO VISIBILITY.

* THESE REPORTS ARE NOT UNDER NWS QUALITY CONTROL AND MAY NOT
  REPORT WEATHER SUCH AS PRECIPITATION AND FOG.

KYZ079-080-083-085-087-088-110-112-115-119-120-270500
...EASTERN KENTUCKY...

CITY           SKY/WX    TMP DP  RH WIND       PRES   REMARKS
JACKSON        CLOUDY    26  21  81 CALM      29.91F
LONDON         CLOUDY    30  22  72 W5        29.93S WCI  25
SOMERSET*      CLOUDY    28  28 100 W5        29.96S WCI  23
MONTICELLO*    LGT SNOW  30  29  96 CALM      29.97S FOG
MIDDLESBORO*   CLOUDY    31  24  77 CALM      29.93F
HARLAN APT*    CLOUDY    28  23  80 W5        29.90F WCI  23
BLACK MTN*       N/A     18  18 100 N2          N/A
PIKEVILLE APT* CLOUDY    25  23  93 W3        29.89F
BIG SANDY*     CLOUDY    27  23  84 CALM      29.92S
MOREHEAD APT*  CLOUDY    27  21  80 CALM      29.94F
$$

KYZ035-036-041-042-044-050-067-078-099-270500
...CENTRAL KENTUCKY...

CITY           SKY/WX    TMP DP  RH WIND       PRES   REMARKS
MT STERLING*   CLOUDY    28  25  86 W3        29.95S
FLEMING/MASON* CLOUDY    22  17  81 NE3       29.95S
DANVILLE*      CLOUDY    30  27  86 W3        29.94F
RICHMOND*      CLOUDY    28  25  86 CALM      29.93S
LEXINGTON      CLOUDY    28  23  81 CALM      29.93F
FRANKFORT      CLOUDY    29  22  75 S3        29.92F
$$

KYZ091>093-OHZ055-061-077-WVZ005-015-034-035-042-270500
...SOUTHERN OHIO/WEST VIRGINIA...

CITY           SKY/WX    TMP DP  RH WIND       PRES   REMARKS
COVINGTON      CLOUDY    25  17  72 E5        29.93S WCI  19
COLUMBUS       PTCLDY    11   7  84 NW6       29.95S WCI   1
DAYTON         CLOUDY    15  11  83 E3        29.95R
WILMINGTON     CLOUDY    13   8  81 CALM      29.93S
HUNTINGTON     CLOUDY    24  20  84 N5        29.93S WCI  18
CHARLESTON     FLURRIES  26  20  77 VRB7      29.91R WCI  18
PINEVILLE*     CLOUDY    27  23  84 MISG      29.91S
BECKLEY        CLOUDY    22  18  85 NW12      29.79S WCI  10
BLUEFIELD      LGT SNOW  22  19  89 NW7G18    29.77S FOG     WCI  13
$$

VAZ002-007-008-TNZ017-027-036-066-071-270500
...SOUTHWEST VIRGINIA/EAST TENNESSEE...

CITY           SKY/WX    TMP DP  RH WIND       PRES   REMARKS
WISE*          CLOUDY    25  25 100 W9        29.83S WCI  15
JONESVILLE*    CLOUDY    28  25  86 W6        29.92F WCI  22
ABINGDON*      CLOUDY    29  22  77 N6        29.84S WCI  22
BRISTOL        CLOUDY    30  24  78 W9        29.88F WCI  22
KNOXVILLE      FLURRIES  30  28  92 SW7       29.95R WCI  23
OAK RIDGE      CLOUDY    32  28  85 CALM      29.96S
CROSSVILLE     CLOUDY    29  26  89 W6        29.91F WCI  23
NASHVILLE      CLOUDY    34  31  88 E3        29.97F
$$

...KEY TO REMARKS...
VSB - VISIBILITY IN MILES
WCI - WIND CHILL INDEX
HX  - HEAT INDEX

$$


USA.gov is the U.S. government's official web portal to all federal, state and local government web resources and services.